Hourly Data Report for July 26, 2006

TORONTO CITY
ONTARIO

43°40'00.000" N
79°24'00.000" W
112.50 m
6158355
71508
XTO

Download Data

Hourly Data (July 2006)
Hourly Data Report for July 26, 2006
TIME
LST
Temp Definition
°C
Dew Point Definition
°C
Rel Hum Definition
%
Precip. Amount Definition
mm

Wind Dir Definition
10's deg

Wind Spd Definition
km/h
Visibility Definition
km
Stn Press Definition
kPa
Hmdx Definition


Wind Chill Definition


Weather Definition


00:00 22.7 20.7 88   LegendMM LegendMM   99.89 31   LegendNANA
01:00 22.7 20.6 88   LegendMM LegendMM   99.89 31   LegendNANA
02:00 22.6 20.6 88   LegendMM LegendMM   99.85 31   LegendNANA
03:00 22.3 20.7 91   LegendMM LegendMM   99.79 30   LegendNANA
04:00 22.3 21.0 92   LegendMM LegendMM   99.77 31   LegendNANA
05:00 22.5 21.4 94   LegendMM LegendMM   99.77 31   LegendNANA
06:00 22.3 21.5 95   LegendMM LegendMM   99.76 31   LegendNANA
07:00 23.5 22.0 91   LegendMM LegendMM   99.78 33   LegendNANA
08:00 24.4 21.9 86   LegendMM LegendMM   99.75 34   LegendNANA
09:00 25.5 22.5 84   LegendMM LegendMM   99.73 35   LegendNANA
10:00 26.7 22.7 79   LegendMM LegendMM   99.73 37   LegendNANA
11:00 28.3 22.9 73   LegendMM LegendMM   99.69 38   LegendNANA
12:00 28.5 22.5 70   LegendMM LegendMM   99.66 38   LegendNANA
13:00 29.8 21.8 62   LegendMM LegendMM   99.63 39   LegendNANA
14:00 27.7 21.4 69   LegendMM LegendMM   99.60 36   LegendNANA
15:00 27.3 22.2 74   LegendMM LegendMM   99.58 37   LegendNANA
16:00 27.4 21.4 70   LegendMM LegendMM   99.51 36   LegendNANA
17:00 27.3 19.1 61   LegendMM LegendMM   99.45 34   LegendNANA
18:00 26.5 19.6 66   LegendMM LegendMM   99.44 34   LegendNANA
19:00 26.4 19.4 65   LegendMM LegendMM   99.46 33   LegendNANA
20:00 25.6 19.6 69   LegendMM LegendMM   99.46 33   LegendNANA
21:00 25.6 20.1 72   LegendMM LegendMM   99.50 33   LegendNANA
22:00 25.2 20.2 74   LegendMM LegendMM   99.47 33   LegendNANA
23:00 23.0 22.0 94   LegendMM LegendMM   99.47 32   LegendNANA

Notes on Data Quality.

Legend

  • E = Estimated
  • M = Missing
  • NA = Not Available*
  • [empty] = Indicates an unobserved value
Date modified: